Погода в Кислове

Россия / Волгоградская область     49°53′40″N   45°22′54″E
темп.,
°C
ветер,
м/с
пор.,
м/с
влажн.,
%
обл.,
%
осадки,
мм/ч
давл.,
гПа
погр.,
м
14 мая, пт
пт1400:00+18всв116583 0.0 101711
03:00+17св227048 0.0 101711
06:00+18св2274100 0.0 101761
09:00+24в34585 0.0 1018486
12:00+28ююв67414 0.0 10171128
15:00+29ююв710355 0.0 10171615
18:00+27юв484615 0.0 1015174
21:00+22ююв51650100 0.0 1016308
15 мая, сб
сб1500:00+19ююв4134624 0.0 1017217
03:00+17ююв33445 0.0 101731
06:00+18юв28470 0.0 1017184
09:00+25ююв583464 0.0 1017471
12:00+29ююв6926100 0.0 10171144
15:00+31ююв711230 0.0 10162430
18:00+27юв48395 0.0 1015148
21:00+21ююв45445 0.0 101655
16 мая, вс
вс1600:00+19ю33455 0.0 101629
03:00+17ююз224235 0.0 101614
06:00+19юв244914 0.0 101795
09:00+25юв4535100 0.0 1017476
12:00+29юв5627100 0.0 10161258
15:00+31ююв5722100 0.0 10153061
18:00+28вюв3539100 0.0 101465
21:00+22юв41442100 0.0 1015249
17 мая, пн
пн1700:00+19юв3333100 0.0 101530
03:00+17в223621 0.0 101512
06:00+18всв364572 0.0 1016140
09:00+26вюв69315 0.0 1015561
12:00+30юв9112351 0.0 10152575
15:00+31юв892191 0.0 10143207
18:00+26в51134100 0.0 1013257
21:00+21вюв4133883 0.0 1014198
18 мая, вт
вт1800:00+19вюв22429 0.0 101419
03:00+17всв223854 0.0 101311
06:00+17св354560 0.0 1013101
09:00+26юв48305 0.0 1013561
12:00+31ююв71122100 0.0 10121908
15:00+32ююв710177 0.0 10113372
18:00+28вюв51133100 0.0 1010241
21:00+23юв5132965 0.0 1011207